Kuantan, Malaysia

7:52 PM +08 on October 20, 2019 (GMT +0800)
Kuantan

Weather History for WMKD - August, 2019

Change the Weather History Date:

Tuesday, August 6, 2019

  Actual Average Record
Temperature  
Mean Temperature 84 °F -  
Max Temperature 92 °F 90 °F - ()
Min Temperature 77 °F 72 °F - ()
Cooling Degree Days 20    
Growing Degree Days 34 (Base 50)    
Moisture  
Dew Point 76 °F    
Average Humidity 79    
Maximum Humidity 89    
Minimum Humidity 53    
Precipitation  
Precipitation 0.00 in 0.24 in - ()
Sea Level Pressure  
Sea Level Pressure 29.78 in    
Wind  
Wind Speed 2 mph ()    
Max Wind Speed 8 mph    
Max Gust Speed -    
Visibility 4.1 miles    
Events      
T = Trace of Precipitation, MM = Missing Value Source: Averaged Metar Reports

Daily Weather History Graph

Daily Weather History Graph

Search for Another Location

Airport or City:

Astronomy

Aug. 06, 2019 Rise Set
Actual Time 7:05 AM +08 7:21 PM +08
Civil Twilight 6:43 AM +08 7:42 PM +08
Nautical Twilight 6:18 AM +08 8:08 PM +08
Astronomical Twilight 5:52 AM +08 8:33 PM +08
Moon 11:44 AM +08 (8/6) No Moon Set
Length of Visible Light 12h 59m
Length of Day
12h 16m
Waxing Crescent, 33% of the Moon is Illuminated
Aug 6
Waxing Crescent
Aug 8
First Quarter
Aug 15
Full
Aug 23
Last Quarter
Aug 30
New

Hourly Weather History & Observations

Time (+08) Temp. Heat Index Dew Point Humidity Pressure Visibility Wind Dir Wind Speed Gust Speed Precip Events Conditions
12:00 AM 80.6 °F 86.2 °F 75.2 °F 84% 29.80 in 6.2 mi Calm Calm - N/A   Mostly Cloudy
1:00 AM 78.8 °F - 73.4 °F 83% 29.80 in 6.2 mi Calm Calm - N/A   Mostly Cloudy
2:00 AM 78 °F - 74 °F 83% 29.80 in 7 mi Calm Calm - -   Haze
2:00 AM 78.8 °F - 73.4 °F 83% 29.80 in 6.2 mi Calm Calm - N/A   Mostly Cloudy
3:00 AM 78.8 °F - 73.4 °F 83% 29.77 in 6.2 mi Calm Calm - N/A   Mostly Cloudy
4:00 AM 77.0 °F - 73.4 °F 89% 29.77 in 6.2 mi SSW 3.5 mph - N/A   Mostly Cloudy
5:00 AM 78 °F - 74 °F 83% 29.78 in 6 mi SSW 3.5 mph - -   Haze
5:00 AM 77.0 °F - 73.4 °F 89% 29.77 in 6.2 mi Variable 3.5 mph - N/A   Mostly Cloudy
6:00 AM 77.0 °F - 73.4 °F 89% 29.77 in 5.0 mi Calm Calm - N/A   Mostly Cloudy
7:00 AM 77.0 °F - 73.4 °F 89% 29.80 in 2.5 mi Variable 2.3 mph - N/A   Haze
8:00 AM 78 °F - 74 °F 85% 29.81 in 1 mi South 3.5 mph - -   Haze
8:00 AM 78.8 °F - 75.2 °F 89% 29.80 in 1.2 mi Variable 3.5 mph - N/A   Haze
9:00 AM 80.6 °F 86.2 °F 75.2 °F 84% 29.83 in 1.6 mi Variable 3.5 mph - N/A   Haze
10:00 AM 82.4 °F 90.9 °F 77.0 °F 84% 29.83 in 0.6 mi Variable 2.3 mph - N/A   Haze
11:00 AM 84.2 °F 94.1 °F 77.0 °F 79% 29.83 in 0.6 mi Variable 3.5 mph - N/A   Haze
12:00 PM 87.8 °F 99.7 °F 77.0 °F 70% 29.80 in 4.3 mi Variable 8.1 mph - N/A   Mostly Cloudy
1:00 PM 91.4 °F 105.1 °F 77.0 °F 63% 29.77 in 4.3 mi Variable 5.8 mph - N/A   Mostly Cloudy
2:00 PM 91 °F - 76 °F 53% 29.77 in 4 mi SSW 6.9 mph - -   Haze
2:00 PM 91.4 °F 102.5 °F 75.2 °F 59% 29.77 in 4.3 mi Variable 6.9 mph - N/A   Mostly Cloudy
3:00 PM 91.4 °F 107.2 °F 78.8 °F 66% 29.74 in 4.3 mi Variable 4.6 mph - N/A   Mostly Cloudy
4:00 PM 93.2 °F 110.2 °F 78.8 °F 63% 29.71 in 4.3 mi Variable 2.3 mph - N/A   Mostly Cloudy
5:00 PM 90 °F - 79 °F 64% 29.72 in 4 mi ESE 5.8 mph - -   Haze
5:00 PM 89.6 °F 104.7 °F 78.8 °F 70% 29.71 in 4.3 mi Variable 5.8 mph - N/A   Mostly Cloudy
6:00 PM 87.8 °F 102.5 °F 78.8 °F 75% 29.71 in 3.7 mi Variable 4.6 mph - N/A   Mostly Cloudy
7:00 PM 86.0 °F 99.3 °F 78.8 °F 79% 29.74 in 3.7 mi Variable 3.5 mph - N/A   Mostly Cloudy
8:00 PM 84 °F - 79 °F 80% 29.78 in 4 mi SE 2.3 mph - -   Haze
8:00 PM 84.2 °F 96.1 °F 78.8 °F 84% 29.77 in 3.7 mi Variable 2.3 mph - N/A   Mostly Cloudy
9:00 PM 84.2 °F 96.1 °F 78.8 °F 84% 29.80 in 3.7 mi Calm Calm - N/A   Mostly Cloudy
10:00 PM 82.4 °F 92.4 °F 78.8 °F 89% 29.80 in 4.3 mi Calm Calm - N/A   Mostly Cloudy
11:00 PM 83 °F - 79 °F 83% 29.83 in 4 mi Calm Calm - -   Haze
11:00 PM 82.4 °F 92.4 °F 78.8 °F 89% 29.83 in 4.3 mi Calm Calm - N/A   Mostly Cloudy